THORAD DELTA 1 DEB, 42614

Orbit data source: Space-Track

THORAD DELTA 1 DEB, 42614 is space debris in SSO originally from a launch on Fri, 15 Nov 1974 UTC launched from the Air Force Western Test Range (AFWTR). Debris objects in space refer to the collection of defunct objects orbiting the Earth. Examples of debris include non-operational satellites, rocket bodies, and fragments generated from explosions, collisions, or faulty payload assembly.

Loading next visibility...
Identifier
42614, 1974-089GF
Orbit
SSO
Country
Flag of USUS
Related business
Manufacturer
Unknown
Mission
Spacecraft
Bus & Motor
Unknown
Mass
Unknown
Launch date (UTC)
1974-11-15 (51 years ago)
Launch vehicle
Unknown
Launch site
Air Force Western Test Range (AFWTR)
Object type
Payload
Rocket body
Debris
Shape & HBR
Unknown shape, 0.1 m
Radar Cross Section
Small (<0.1 m²)

Expand to show TLE details & history
Last TLE update: 3 days ago

TLE from 3 days ago
0 THORAD DELTA 1 DEB
1 42614U 74089GF  26123.25966644  .00000394  00000-0  25395-2 0  9993
2 42614 101.8798 282.6882 0037388 244.2262 241.1545 12.59859054530323
Epoch: 2026-05-03T06:13Z
TLE epoch observation values (Epoch: 2026-05-03T06:13:55.180Z)
Latitude
53.37295°
Longitude
164.39735°
Altitude
1,446.204 km
Speed
7.137 km/s
True Right ascension
07h 56m 10s
True Declination
53° 13' 22"
Sunlit
Object was in daylight at epoch
Visualization orbit readout
Latitude
Unknown
Longitude
Unknown
Altitude
Unknown
Speed
Unknown
Apparent Right ascension
Unknown
Apparent Declination
Unknown
Sunlit
N/A
Visualization observer readout
Local Sidereal Time
18:35:37
Azimuth
Unknown
Elevation
Unknown
Doppler factor
Unknown
Orbital elements
Apogee altitude
1,450.228 km
Perigee altitude
1,391.908 km
Semi-major axis
7,799.205 km
Eccentricity
0.00374
Inclination
101.8798°
RAAN
282.6882°
Arg. of periapsis
244.2262°
True anomaly
240.78007°
Mean anomaly
241.1545°
Eccentric anomaly
240.9672°
Mean motion
3.15114 °/min
Orbital period
114.24 mins
BSTAR
0.0025395
Loading maneuver chart data...
Computing Atmospheric mass density...

Documentation

Showing up to 5 results
|